Wind_Speed
49 50 51 52 53 54 55 56 56 56 56 56 56 56 56 56 56 56 56 55 54 52 50 49 47 45 44 42 41 40 41 43 44 44 38 36 38 37 37 37 36 36 35 34 34 33 32 32 31 31 31 31 31 30 30 28 26 24 22 20 19 20 22 23 23 23 23 23 24 25 24 23 22 21 21 20 20 20 20 22 23 25 26 23 19 18 19 20
48 49 50 50 51 52 53 55 56 56 57 57 57 57 57 57 57 57 57 56 56 54 53 51 49 48 45 44 42 40 40 42 44 42 37 38 39 38 37 37 35 35 34 34 34 33 33 33 32 32 32 32 32 31 30 28 26 23 22 20 20 22 24 24 24 24 24 25 25 25 24 23 22 21 21 21 22 22 22 23 24 27 26 21 18 18 20 21
49 50 50 50 50 51 51 52 54 55 56 57 58 58 58 57 57 57 57 57 56 55 54 53 51 49 47 45 43 42 40 40 42 39 37 41 41 39 37 35 35 35 35 35 35 35 33 33 33 33 33 32 32 32 30 28 25 23 22 21 22 24 26 25 25 25 25 25 25 25 24 23 23 21 21 22 22 23 24 25 26 28 25 20 19 20 21 22
50 50 51 51 52 52 52 52 52 53 55 56 57 58 58 58 57 57 58 57 57 56 55 54 53 51 49 47 45 43 41 40 40 38 39 44 43 40 37 35 35 36 37 36 35 35 34 34 33 33 33 32 32 32 30 28 25 23 22 22 24 27 27 26 26 26 26 26 25 25 24 24 23 22 21 21 21 22 24 25 27 28 24 21 21 22 23 22
52 52 52 52 53 53 53 53 53 53 53 54 56 57 58 58 58 57 58 58 57 56 55 55 54 53 50 48 46 45 43 40 39 38 41 45 44 41 37 35 36 37 38 36 36 36 35 34 34 33 32 32 31 31 29 27 25 23 23 25 27 27 26 26 27 27 26 25 25 25 24 23 23 22 21 20 20 22 23 24 24 25 23 22 23 24 23 22
54 54 53 53 53 53 54 54 54 54 54 54 54 56 57 58 57 57 57 58 57 57 56 55 55 54 52 50 48 46 44 41 38 38 42 44 45 42 37 36 37 37 38 37 36 36 36 35 34 33 32 31 30 29 27 26 25 24 25 27 28 27 26 27 27 27 26 25 25 25 24 24 24 22 20 19 20 20 20 21 22 23 23 24 25 24 23 23
56 55 54 54 53 53 54 54 55 55 55 55 55 55 56 57 57 57 57 57 57 56 56 55 55 55 53 51 49 47 44 41 39 38 41 44 46 43 38 38 37 37 38 37 37 37 36 35 33 33 32 32 31 28 27 26 25 26 27 28 27 26 26 27 27 26 25 24 25 24 24 23 23 22 20 19 19 19 19 21 22 24 25 26 26 25 24 24
56 56 55 55 54 54 54 54 55 55 56 56 56 56 56 56 56 57 57 56 56 56 56 55 56 55 53 52 50 48 44 41 40 40 41 44 46 44 40 38 38 37 38 38 37 37 37 35 35 34 33 33 31 29 29 29 27 27 28 28 27 27 27 27 26 24 24 24 24 23 23 23 22 21 19 19 20 20 21 22 23 25 26 26 26 26 25 25
56 56 55 55 55 54 54 55 55 56 56 57 57 57 57 56 56 56 57 56 56 56 55 55 56 55 54 52 51 48 43 41 43 41 41 43 45 44 42 39 38 37 38 39 38 38 37 36 35 34 33 33 32 31 32 31 28 27 28 27 27 27 27 25 24 23 23 23 23 22 22 22 21 20 20 21 22 22 22 23 24 25 26 26 26 25 24 24
56 55 55 55 54 55 55 55 56 56 57 57 58 58 58 57 57 56 56 56 56 55 55 55 55 55 54 53 52 48 43 43 44 42 40 43 45 44 43 40 38 38 39 39 38 38 36 35 35 34 34 34 33 33 33 31 28 28 29 29 28 27 25 24 23 22 22 23 22 22 23 22 20 20 22 24 24 22 22 23 24 25 26 25 24 23 22 23
55 55 55 54 54 55 55 56 56 56 57 57 58 58 58 58 58 57 57 56 56 55 55 55 54 54 53 53 51 46 44 44 45 43 41 43 46 44 44 42 40 39 39 39 38 38 37 36 36 35 35 35 33 34 33 30 29 29 29 29 28 26 25 24 23 22 23 22 22 22 21 19 20 22 24 26 24 22 21 22 23 24 24 23 23 22 22 23
54 54 54 54 55 55 55 55 56 56 56 57 57 57 57 57 57 57 57 57 56 56 55 55 54 53 53 52 49 45 44 45 46 45 42 44 47 45 44 43 41 40 39 39 39 38 38 37 36 35 35 35 34 34 33 30 29 29 29 29 28 27 26 24 23 23 23 21 21 20 18 18 22 24 25 25 24 21 20 21 22 22 22 22 22 21 22 23
53 54 54 54 54 54 54 54 54 55 55 55 56 56 56 56 56 57 57 56 56 55 55 55 54 53 52 50 46 45 45 46 46 45 43 44 46 45 43 42 41 40 39 39 39 39 39 38 37 37 36 35 35 35 33 30 29 29 30 30 28 27 26 25 24 23 21 20 20 18 17 20 23 25 26 24 22 20 20 21 21 21 21 21 21 22 23 24
53 53 53 53 53 53 53 53 52 52 53 54 54 54 54 55 55 55 55 54 54 54 54 54 53 52 52 47 45 46 46 45 45 44 43 43 45 44 42 41 41 41 40 39 39 39 39 38 38 38 37 36 36 34 32 29 29 30 31 31 29 28 27 25 24 22 21 20 19 17 18 23 26 27 25 22 21 19 19 19 19 19 19 20 21 22 23 24
51 52 52 52 51 51 51 50 50 50 51 51 51 51 52 53 53 53 53 52 52 52 52 52 52 51 50 46 44 46 46 44 43 43 42 42 44 44 42 41 42 42 42 41 40 40 39 39 39 38 37 36 35 33 31 29 29 30 32 31 30 28 26 26 25 24 23 21 20 18 18 25 28 26 23 20 19 17 17 18 18 19 20 20 21 21 23 24
49 49 49 49 49 48 48 47 47 48 48 48 48 48 49 51 51 51 51 51 50 50 50 50 50 50 48 45 44 46 45 42 41 42 42 42 44 44 43 43 43 43 43 43 42 41 40 39 38 38 37 36 35 33 31 30 31 31 32 32 30 28 26 27 27 25 24 23 21 20 22 26 27 24 21 19 17 16 17 18 18 19 19 19 20 21 23 24
46 46 46 45 45 44 44 44 44 44 44 44 45 46 47 48 48 48 49 48 48 48 48 48 48 48 46 44 44 45 44 41 41 43 43 43 45 45 45 44 44 44 44 44 44 43 41 40 38 38 37 36 35 34 32 31 32 33 32 31 30 28 28 30 29 28 27 25 23 23 25 26 25 23 21 19 18 19 19 19 19 18 17 18 18 20 22 23
42 42 41 40 40 39 39 40 40 40 40 41 41 43 44 45 45 46 46 46 46 46 47 47 46 46 44 42 43 44 43 41 42 44 44 45 46 47 46 45 45 45 45 45 45 44 43 40 39 38 37 36 35 34 33 32 32 32 32 31 30 29 30 31 31 30 28 26 25 25 26 27 26 25 24 24 23 22 21 20 19 18 17 16 16 17 20 21
37 36 35 35 34 34 35 36 36 36 36 37 39 40 42 42 43 45 45 45 45 44 44 44 44 43 41 40 42 43 42 41 43 44 45 46 47 48 47 47 46 46 47 46 46 46 44 41 39 38 36 35 35 34 33 32 32 32 32 31 31 32 33 33 31 31 28 25 24 25 27 29 29 28 28 28 26 24 23 23 22 20 19 18 17 18 20 19
30 29 29 29 29 29 31 31 32 32 33 34 36 38 39 41 42 43 43 43 41 41 42 42 42 41 40 40 42 41 40 41 43 44 45 46 47 47 47 47 47 47 48 48 47 46 44 41 38 37 36 35 35 35 34 32 31 32 32 33 33 33 34 33 31 31 29 25 25 27 30 31 30 30 29 28 26 25 24 24 23 22 21 21 21 20 19 17
22 22 22 23 24 25 26 27 28 29 31 33 34 36 38 39 39 40 39 38 38 40 40 40 41 41 40 41 42 41 40 42 44 45 45 46 47 47 47 47 46 47 48 48 47 46 44 40 37 37 37 35 35 35 33 30 30 32 34 34 32 31 32 33 33 32 28 26 28 31 32 32 30 29 28 27 25 24 24 23 22 22 21 21 20 18 16 16
15 15 16 17 19 21 23 26 26 28 30 32 33 35 35 35 34 34 34 34 36 37 37 38 39 39 39 39 39 40 40 41 43 44 45 46 46 47 47 46 46 47 48 48 48 47 43 40 38 38 38 36 35 34 32 31 33 35 36 34 30 29 31 33 34 31 28 29 31 32 32 31 30 28 26 26 24 23 24 23 21 21 20 18 17 15 15 16
10 10 12 15 17 19 23 25 25 27 29 31 32 32 31 30 30 30 31 32 34 35 36 36 36 36 37 37 37 37 37 38 40 41 43 43 44 45 45 45 45 46 47 48 48 46 43 41 40 39 37 36 34 33 33 34 37 39 38 34 30 30 32 34 34 31 30 31 32 32 31 30 29 28 26 25 24 24 25 25 22 20 19 17 16 15 15 17
8 10 12 15 16 19 24 25 26 28 29 29 30 28 27 26 27 27 29 31 32 34 34 35 36 36 35 36 37 36 35 36 38 39 40 40 41 43 44 44 45 45 46 47 47 46 44 42 41 39 37 35 35 35 36 38 40 41 39 34 33 34 35 35 35 33 32 32 32 32 32 31 29 28 26 25 24 25 25 25 22 19 17 16 16 16 17 18
10 12 14 16 16 19 23 23 24 29 29 28 27 26 26 25 26 27 29 30 32 32 33 34 34 34 36 37 37 35 35 36 37 38 39 37 38 40 41 43 44 45 45 46 47 47 45 41 39 37 37 37 37 37 39 41 43 43 39 35 35 38 38 37 35 34 33 33 33 33 33 33 30 27 26 25 25 26 26 24 20 18 17 17 17 17 18 18
13 15 17 18 19 21 23 21 22 28 28 28 28 26 26 26 26 27 28 30 31 31 32 32 31 32 35 34 32 33 34 35 36 38 38 36 36 38 38 40 42 44 45 46 47 47 43 38 36 37 38 39 39 40 41 43 44 43 39 36 37 40 40 38 37 36 35 34 34 35 34 32 29 27 25 25 25 25 24 22 20 19 17 17 17 18 18 19
17 18 19 19 20 23 24 22 23 26 27 28 30 28 27 26 25 26 27 29 29 29 30 30 30 31 31 28 29 31 33 34 36 38 37 36 38 39 38 37 39 42 45 45 47 45 39 36 37 39 40 41 41 41 41 42 43 42 38 36 37 39 40 39 39 38 36 35 35 35 34 32 29 27 24 24 24 24 23 21 20 19 18 17 18 18 19 20
20 20 21 21 21 23 26 25 24 26 26 26 29 28 26 26 25 26 28 28 27 28 29 29 30 30 29 28 29 29 29 33 36 36 35 35 37 38 39 37 36 38 42 44 44 40 36 35 38 40 41 41 40 39 39 40 40 38 36 37 38 40 41 41 40 39 38 37 36 35 33 32 30 27 24 24 25 24 23 21 19 18 18 19 19 20 20 21
21 21 22 22 22 24 27 27 25 26 27 27 28 28 26 25 26 27 29 28 26 27 29 29 30 31 29 29 30 29 29 32 33 33 35 36 37 38 37 35 35 36 40 40 36 33 33 36 39 40 41 39 36 34 35 37 36 35 37 39 41 41 42 42 41 39 38 37 36 35 34 32 30 28 26 25 26 26 24 21 19 18 18 19 20 22 22 22
19 20 22 23 24 26 28 29 26 26 28 28 29 28 26 26 28 29 30 29 26 27 29 29 30 30 29 29 31 31 31 32 32 33 35 36 36 36 34 33 36 38 40 37 32 32 35 39 41 42 41 37 33 33 34 34 33 36 40 42 42 43 42 42 40 39 39 38 36 36 34 31 30 29 28 27 28 28 25 22 20 19 18 20 21 23 24 24
19 19 21 22 24 27 29 29 27 28 29 28 27 27 26 28 30 31 30 28 25 25 30 31 31 31 29 29 31 32 32 31 33 35 36 37 35 35 36 37 40 42 41 37 34 36 39 40 42 41 39 37 36 36 36 35 36 39 43 44 44 44 43 42 41 40 39 37 36 35 32 31 31 30 29 28 28 27 25 23 22 20 19 20 22 22 24 24
17 18 20 22 23 25 27 27 27 28 28 28 27 27 27 29 31 31 29 27 24 24 30 33 32 31 28 27 29 31 32 32 34 36 36 36 36 36 37 40 43 45 43 39 37 39 39 40 40 37 36 37 38 39 39 40 42 44 47 47 46 46 45 43 42 41 39 37 36 34 31 32 32 31 30 29 27 26 25 24 23 21 20 20 21 22 23 23
17 18 19 21 21 23 25 26 27 28 28 28 27 28 29 30 30 28 27 27 24 23 30 32 31 30 27 28 30 30 31 32 34 36 35 34 34 35 37 39 41 42 40 39 40 40 39 39 38 35 35 38 40 40 40 42 45 47 48 47 46 46 46 45 43 42 39 36 34 32 31 34 34 32 32 29 27 27 25 24 23 22 22 23 23 23 21 20
17 18 19 21 22 24 25 26 27 28 29 29 28 30 30 28 28 27 27 28 24 24 31 33 32 31 28 29 30 30 32 32 33 34 35 35 34 35 36 38 39 39 37 38 40 40 39 38 36 35 35 37 37 38 38 39 42 45 46 45 45 45 45 44 43 41 37 34 33 32 34 36 36 34 32 29 27 27 26 24 24 24 25 25 25 23 20 18
17 19 21 23 25 26 26 25 27 29 30 30 29 29 28 27 28 28 27 27 23 25 33 34 34 34 31 31 31 30 31 31 31 32 33 35 35 34 35 36 36 36 36 38 39 38 37 35 34 34 34 33 33 35 36 36 38 40 42 43 44 45 45 43 42 39 36 35 35 35 36 38 37 35 32 30 28 28 26 25 26 26 26 25 25 22 18 17
19 21 23 25 26 25 25 26 28 30 30 30 29 28 28 28 28 25 24 24 21 26 35 34 33 34 33 34 34 32 31 30 30 32 32 33 33 31 31 32 32 32 35 38 38 37 35 33 32 32 31 32 32 33 33 33 34 35 38 40 41 43 43 42 41 39 37 38 38 38 38 38 37 34 32 31 31 29 27 27 27 27 25 24 23 20 17 16
21 22 23 25 26 25 27 28 30 30 29 29 28 27 29 28 25 23 21 21 22 28 34 34 34 35 34 36 37 35 33 31 30 31 31 31 32 31 30 30 29 29 32 35 35 35 33 31 31 31 31 32 33 32 31 30 31 32 34 36 38 40 41 40 40 40 39 40 40 39 39 38 37 35 33 32 32 31 30 29 28 26 25 22 20 19 17 17
21 22 23 25 26 27 29 29 30 29 27 28 28 29 31 26 21 21 18 17 23 30 33 34 35 36 35 35 37 36 34 32 30 29 29 29 30 31 31 30 29 29 30 32 33 33 32 31 32 33 33 33 32 32 32 31 31 31 31 32 35 37 38 38 39 40 40 40 41 40 39 38 37 36 35 34 33 32 32 32 29 26 24 22 19 18 18 17
22 23 24 26 27 29 30 29 29 27 27 29 28 29 29 22 19 20 14 17 27 32 33 33 34 34 33 32 34 34 34 32 29 28 27 28 29 29 30 30 30 31 31 31 32 31 31 32 32 34 34 34 33 32 32 32 33 33 32 32 34 35 35 35 37 38 39 39 41 41 40 38 37 37 36 35 34 33 33 31 29 26 23 21 20 19 18 17
22 23 24 26 28 30 30 29 28 27 27 28 28 29 28 23 21 18 13 22 32 33 31 31 31 31 31 30 31 32 32 29 27 27 27 28 29 29 29 29 30 32 33 33 32 32 31 32 33 33 34 34 33 32 31 31 31 33 33 33 33 33 34 35 36 37 38 39 40 41 40 38 37 36 35 34 32 32 32 29 27 24 22 21 21 20 19 19
22 23 25 28 29 30 30 29 28 27 28 28 28 28 27 26 24 16 17 28 34 31 31 31 30 30 29 30 30 30 31 29 28 28 27 27 28 29 29 28 28 32 34 35 35 34 33 33 33 33 33 33 33 31 30 31 31 32 32 31 31 32 32 34 35 36 38 39 39 39 37 36 36 36 35 32 30 29 28 26 24 22 22 21 21 19 19 19
23 23 25 28 30 30 30 30 29 29 29 28 28 27 27 27 23 17 22 32 32 29 30 31 30 29 27 28 29 30 31 31 30 28 27 28 27 26 27 27 28 31 35 36 37 36 36 36 35 35 34 33 32 31 30 30 30 30 29 28 29 29 30 31 32 33 34 36 36 36 34 34 34 34 33 31 28 26 24 23 21 20 20 20 19 18 18 18
23 21 23 28 30 29 30 31 31 31 30 29 28 27 27 27 21 18 25 33 32 30 30 31 31 28 27 29 30 31 31 31 31 29 28 29 27 25 26 27 28 31 34 36 37 37 38 38 38 36 35 34 33 32 30 29 29 29 29 28 28 27 27 28 28 28 29 30 31 31 32 32 31 31 31 29 27 24 20 19 19 19 19 18 17 17 17 18
23 20 23 28 30 30 31 32 32 33 32 30 29 27 28 27 21 19 26 32 32 31 30 31 32 29 29 31 31 31 31 30 31 30 29 28 26 25 26 27 30 32 33 35 37 38 39 40 40 38 37 36 35 34 33 31 31 30 29 29 28 26 26 27 28 28 28 28 28 29 29 28 27 27 27 25 24 21 18 17 16 16 17 16 15 15 16 17
24 23 25 28 30 31 31 32 33 33 33 31 30 28 28 28 22 20 27 33 32 32 32 32 32 31 31 31 31 30 29 29 30 30 29 28 26 26 27 27 30 32 33 35 36 37 39 40 40 39 38 38 37 36 35 34 32 31 30 29 29 27 27 28 29 30 29 28 28 28 27 25 25 25 23 21 20 19 17 17 16 15 15 14 13 14 15 15
24 23 26 28 30 32 31 32 33 33 32 32 31 29 29 30 25 21 27 34 32 31 32 31 32 32 31 31 31 31 30 29 28 29 29 28 27 26 26 27 28 30 32 33 34 36 38 39 40 39 38 37 36 36 35 33 32 30 29 29 28 27 28 29 30 31 30 29 28 27 25 23 22 21 20 19 18 18 18 17 17 16 15 14 14 14 14 14
25 24 26 28 29 31 31 32 33 33 33 32 31 30 30 31 28 23 27 33 31 29 31 31 31 31 31 31 31 30 30 29 28 28 29 28 27 26 26 27 27 28 30 31 33 35 36 38 38 38 37 36 35 35 34 33 31 29 27 27 25 24 26 28 30 30 30 30 28 26 24 21 20 20 19 19 18 18 17 17 17 17 16 15 16 17 17 17
25 23 27 28 29 30 31 32 32 32 33 32 31 31 31 32 30 25 27 32 31 27 28 29 29 28 29 30 29 28 28 29 28 28 28 27 27 26 26 26 27 27 28 29 31 33 35 36 37 37 37 35 34 34 34 33 32 30 28 26 25 24 24 25 27 29 30 29 27 26 25 23 21 21 20 19 19 18 18 18 18 18 18 18 19 20 20 21
22 21 27 30 30 31 32 32 32 32 32 30 30 31 30 31 31 26 26 31 30 27 27 27 26 25 26 28 28 26 27 27 26 26 26 25 24 24 24 24 24 25 25 26 28 30 33 35 36 36 36 35 33 33 33 33 32 31 28 27 26 25 24 24 25 27 28 29 28 27 26 25 23 22 22 21 20 20 19 18 18 18 18 19 20 21 23 23
21 20 24 29 31 32 32 32 32 31 31 30 29 30 28 28 29 26 26 29 30 28 27 26 24 24 24 26 28 27 27 26 24 23 23 22 22 22 21 21 20 21 22 23 25 27 30 33 34 35 35 35 34 32 31 31 31 30 28 27 28 27 27 25 24 25 27 28 28 28 27 26 25 24 23 23 22 21 20 18 17 17 17 16 17 19 21 23
21 20 21 26 31 31 30 31 31 30 30 30 30 29 28 28 29 28 27 30 30 29 28 25 23 23 23 24 26 27 28 27 25 23 22 21 21 21 20 19 18 18 19 21 23 25 27 29 31 33 34 35 35 33 32 30 30 30 30 30 29 29 28 27 25 25 26 27 28 28 28 28 27 26 25 24 23 22 21 19 18 18 18 16 15 15 16 18
23 22 20 24 29 31 31 32 32 31 31 32 31 30 30 30 31 30 29 31 31 29 27 25 23 22 22 23 25 26 26 25 24 22 21 20 20 20 20 19 18 18 18 19 21 24 26 27 29 30 32 33 34 34 34 32 31 31 31 31 30 27 26 26 26 26 26 26 27 28 29 30 30 29 26 24 23 23 23 21 20 20 20 20 19 17 16 17
Wind_Direction
268 267 266 264 263 262 261 259 258 257 257 257 257 256 255 254 253 251 250 249 249 249 249 250 251 251 251 250 249 248 245 242 239 237 238 241 241 242 244 244 242 241 239 237 236 233 231 229 225 222 221 221 220 221 222 222 224 225 227 228 228 232 238 241 242 244 246 248 250 253 256 259 263 265 266 266 265 264 264 262 263 264 264 264 262 260 260 260
269 268 267 266 264 263 262 260 259 258 257 256 256 256 256 255 253 252 251 249 249 249 249 250 250 251 250 250 250 249 246 243 239 235 237 239 239 240 242 243 241 239 238 235 234 231 228 227 224 221 220 220 219 220 221 221 222 223 225 225 227 232 237 239 241 243 244 246 248 251 254 257 260 262 263 264 264 263 262 261 261 260 260 261 259 256 256 258
271 269 268 267 265 264 263 261 260 258 257 256 256 255 255 255 254 253 252 250 249 249 249 249 250 250 250 250 250 249 247 243 239 235 237 237 237 239 239 241 239 237 235 234 233 231 228 227 224 221 221 220 220 221 221 221 221 222 224 225 228 235 238 238 240 242 243 245 247 250 252 254 257 258 260 262 263 264 263 263 262 261 261 260 256 254 254 256
273 271 268 267 265 264 263 262 261 260 258 257 256 255 255 254 254 253 252 251 250 249 249 249 249 249 249 249 249 249 247 244 239 235 235 235 235 237 237 237 236 235 234 232 232 231 228 227 225 223 222 222 222 223 223 223 222 223 225 226 232 238 239 239 241 243 244 245 247 250 252 253 255 256 258 260 263 265 266 267 267 268 267 261 256 254 255 256
276 273 270 268 265 264 262 262 261 260 259 257 256 255 254 254 253 253 252 251 250 249 248 248 248 248 248 248 248 248 248 245 241 235 233 234 234 235 235 235 234 234 233 231 231 230 228 227 226 224 223 224 224 225 226 224 225 225 223 228 235 238 239 240 242 244 245 247 248 249 251 253 254 254 256 259 262 265 267 267 268 269 268 262 257 256 257 260
277 276 273 270 267 264 261 260 259 258 258 257 256 255 254 253 252 252 251 251 250 249 248 248 248 247 247 248 248 248 247 246 242 235 232 233 233 233 234 234 234 233 232 230 229 229 229 227 226 225 224 224 224 225 225 225 225 223 224 231 235 237 239 241 242 243 245 247 248 249 252 253 254 254 256 257 259 262 263 261 259 260 259 257 256 258 260 263
277 276 274 271 268 264 261 259 257 257 256 256 255 254 253 252 252 251 251 250 250 249 248 248 248 247 247 247 247 246 246 246 244 237 231 231 232 231 231 233 233 232 231 229 228 228 228 227 226 225 224 223 221 220 221 222 222 221 225 230 233 235 237 239 241 243 245 247 249 251 253 254 255 256 256 257 259 260 257 253 251 252 252 252 254 257 260 262
276 275 273 271 269 265 262 259 257 255 255 255 255 254 253 252 251 250 250 249 248 248 248 247 247 247 247 246 246 245 245 245 243 238 231 230 231 231 229 231 232 231 230 227 226 226 226 226 225 224 223 222 220 217 218 220 218 219 224 228 231 233 235 238 241 244 246 248 250 251 251 253 256 257 257 257 256 254 250 249 249 249 250 251 253 256 260 264
275 274 272 270 268 265 262 259 256 255 254 254 254 253 252 251 250 249 249 248 247 247 246 246 246 247 246 246 245 244 244 243 242 239 232 229 231 231 229 229 230 230 229 226 225 224 224 225 224 223 222 221 219 217 220 219 214 215 221 225 230 232 235 239 242 244 245 246 248 249 249 251 253 255 257 253 249 247 246 248 249 249 249 249 251 255 261 265
275 273 271 269 267 264 261 259 257 255 254 254 253 253 251 250 250 249 248 247 246 246 245 245 245 246 246 245 244 243 242 241 241 239 232 228 230 230 229 228 228 228 228 226 224 222 222 223 223 222 221 220 218 218 220 217 211 213 220 225 230 233 236 239 240 240 242 243 244 245 245 247 248 249 251 249 249 249 247 247 247 248 248 248 251 255 259 261
274 272 271 269 266 264 262 260 258 256 255 254 252 252 251 249 248 247 246 245 244 244 244 244 244 245 244 244 244 242 240 240 240 238 232 227 227 228 228 227 227 227 227 225 223 221 220 220 221 221 221 219 217 218 219 214 211 216 224 229 232 233 235 236 236 237 239 240 240 241 242 243 245 245 245 248 252 252 249 247 247 247 248 249 251 254 256 258
274 272 270 268 266 264 262 261 259 257 255 253 252 251 249 248 247 246 245 244 243 242 242 242 242 243 243 243 243 239 237 238 238 237 232 226 225 226 227 227 227 226 226 225 223 221 219 219 219 219 220 219 217 218 217 213 213 219 226 230 231 232 233 234 233 234 236 235 235 237 237 240 243 243 244 248 252 251 247 246 245 246 246 247 250 252 254 257
274 272 270 268 267 265 263 261 259 257 254 252 251 249 247 246 244 243 243 242 240 239 239 239 240 240 241 241 239 236 236 236 237 235 232 227 223 225 227 227 228 227 226 226 225 222 220 218 217 218 218 217 217 219 218 215 215 221 227 229 228 229 230 230 229 230 229 228 229 230 232 239 241 241 245 248 250 246 242 242 242 243 244 246 250 252 254 257
274 272 270 269 267 265 263 260 258 255 253 251 249 246 245 243 242 241 240 239 237 237 236 236 237 238 239 237 234 235 235 234 235 233 231 227 223 224 226 226 227 226 224 224 224 224 222 219 218 217 217 217 218 220 220 217 218 222 227 228 228 228 226 226 225 222 221 220 220 221 230 238 239 241 246 247 246 242 241 242 243 245 247 249 252 255 258 261
275 273 271 269 266 264 262 259 256 253 250 248 246 243 242 240 239 238 237 235 234 233 233 233 233 235 235 232 230 233 234 232 231 229 228 226 223 223 225 225 225 224 223 223 223 222 222 221 220 218 218 218 219 220 220 218 220 224 228 228 226 225 222 221 219 215 215 215 213 215 224 234 237 241 244 242 241 239 240 244 248 251 253 254 256 258 260 263
275 273 271 269 266 263 260 256 253 250 247 244 241 239 238 237 236 234 233 232 231 230 230 230 230 231 230 227 227 230 230 228 225 225 225 224 221 221 222 222 223 223 222 221 221 222 221 220 220 220 219 219 220 221 220 219 221 224 227 226 223 219 216 217 216 212 213 212 210 212 219 230 236 239 239 238 239 240 242 246 249 252 254 256 256 257 260 264
276 274 271 268 264 260 257 253 249 246 242 239 236 235 234 233 232 230 229 228 227 226 226 226 227 227 226 225 225 227 226 222 221 222 222 222 221 220 221 221 221 222 222 220 220 221 220 219 219 221 221 220 220 221 221 221 224 225 224 222 219 214 212 215 214 213 213 211 211 214 220 229 233 233 233 234 238 241 242 243 244 246 248 251 253 258 262 266
277 274 270 266 261 256 251 247 243 240 236 233 231 231 230 228 227 226 224 223 222 222 223 223 223 224 223 221 222 222 221 219 219 219 219 220 219 218 219 220 220 220 221 220 219 219 219 218 218 219 220 221 221 222 223 223 223 224 221 218 214 210 212 215 215 216 215 213 214 218 223 227 227 228 230 232 235 238 240 239 239 238 237 239 247 255 259 263
276 272 268 262 256 250 245 240 236 233 230 227 226 226 225 223 222 221 220 220 219 219 220 220 220 221 218 217 219 220 218 217 217 218 218 219 218 217 218 218 219 219 219 219 219 218 218 217 218 219 220 221 222 222 222 220 218 219 217 212 208 208 212 215 216 218 217 216 217 219 222 224 226 230 231 231 234 238 242 243 243 239 232 230 233 240 249 261
274 270 263 256 249 242 237 233 229 225 223 222 221 222 221 219 219 218 217 216 216 216 217 216 216 215 214 213 216 216 215 215 216 216 217 218 218 217 218 218 219 219 219 219 219 218 217 216 217 219 219 219 221 220 218 215 214 216 212 207 205 208 213 215 216 219 218 216 215 216 219 224 229 232 231 232 236 241 246 248 247 242 235 231 231 238 250 265
273 267 257 248 240 233 229 225 222 220 219 219 219 219 218 217 216 216 215 213 213 213 213 213 212 212 212 212 212 212 212 214 215 215 215 216 217 218 218 218 219 219 219 219 218 217 216 215 215 217 217 216 218 218 216 212 211 212 207 203 203 207 213 215 217 219 215 209 207 211 218 226 230 231 232 236 239 244 249 250 247 243 237 234 238 246 258 270
274 262 247 236 231 227 224 220 217 218 217 216 216 216 215 214 214 214 212 210 211 212 211 211 210 209 210 211 211 211 211 213 214 215 215 215 217 218 218 218 219 219 219 219 218 217 214 213 215 216 214 214 215 215 211 206 206 206 203 200 200 205 211 215 218 216 205 199 202 210 219 226 229 231 235 240 244 248 252 250 243 238 237 239 247 257 266 274
270 249 230 226 231 228 219 217 218 218 215 213 213 213 210 209 210 210 208 208 209 209 209 208 207 206 207 208 209 209 210 212 214 215 216 216 217 218 219 219 218 219 219 218 218 217 213 211 214 214 212 210 211 210 206 203 203 203 201 198 196 200 206 212 215 209 195 191 200 211 219 224 228 231 236 242 248 251 254 252 245 237 236 242 250 258 263 267
259 238 225 226 233 226 217 221 220 215 214 212 210 208 204 203 204 205 205 204 205 205 204 204 203 203 204 205 206 205 206 210 212 214 215 216 218 219 219 219 218 218 218 217 218 217 214 212 212 211 209 207 206 204 202 200 202 202 199 195 192 195 202 208 210 205 194 192 201 212 218 223 226 231 238 244 250 254 256 254 249 243 243 245 250 254 258 263
258 243 233 227 228 222 219 223 215 209 211 211 208 202 198 198 199 200 202 202 201 200 200 201 200 201 203 203 202 201 203 207 210 213 213 214 216 218 218 218 217 216 216 217 217 215 214 212 210 208 205 203 202 201 199 200 201 201 197 191 190 195 201 206 208 205 198 196 204 213 218 223 226 231 238 246 253 258 258 254 251 251 251 248 248 254 261 265
258 248 240 230 224 220 222 223 212 207 208 204 201 196 192 195 197 198 200 199 198 197 197 197 196 200 204 201 200 201 202 204 207 211 211 209 210 213 215 217 216 215 214 216 216 215 213 211 208 205 203 202 200 199 199 201 202 201 195 189 192 196 201 205 208 207 202 201 207 214 219 223 227 232 239 248 255 257 254 250 252 256 256 255 256 261 267 270
255 249 241 231 223 217 219 223 214 209 208 199 193 192 191 194 195 196 197 196 194 194 194 194 195 201 202 198 200 202 202 202 205 207 207 205 206 207 208 212 215 215 213 213 214 213 211 208 206 204 203 201 200 200 201 203 204 201 193 190 193 197 201 205 209 209 206 205 210 216 220 223 227 232 240 250 253 249 247 249 255 259 263 266 269 270 272 275
253 247 239 229 220 214 214 219 215 210 209 198 191 193 195 194 192 193 194 192 190 193 193 191 195 200 198 195 199 199 200 205 207 205 203 202 203 204 203 205 210 214 214 212 211 210 208 206 205 205 204 202 200 200 201 204 204 198 191 191 195 197 201 205 208 210 210 210 212 217 221 224 229 233 240 248 246 241 242 249 255 262 268 272 273 272 273 276
250 242 234 226 218 213 212 215 216 211 208 200 194 198 199 194 190 191 192 190 189 192 193 192 196 199 197 196 195 191 195 202 204 203 203 201 201 202 201 201 204 208 210 210 206 203 202 202 203 203 203 202 201 200 202 203 201 192 189 192 195 198 202 206 208 210 212 213 214 219 222 225 232 237 239 240 239 239 242 246 252 260 268 272 274 274 273 274
243 234 229 224 217 214 213 214 215 211 207 202 198 198 198 194 192 192 193 191 190 192 192 193 196 198 198 196 191 187 192 197 195 197 201 201 199 198 197 199 201 202 204 203 197 195 198 199 200 202 202 200 199 200 200 198 193 189 190 193 196 199 203 206 209 211 213 215 216 221 225 229 235 239 240 236 234 237 244 249 255 260 266 270 274 275 274 272
234 226 221 219 215 213 212 211 211 207 204 201 198 198 198 196 195 195 193 191 192 193 191 192 194 194 194 193 189 189 191 191 191 194 197 198 196 194 195 198 199 199 199 195 191 194 196 196 198 200 200 198 197 197 196 191 187 188 192 195 197 200 203 206 209 212 214 215 218 223 229 235 237 239 243 242 236 238 245 252 257 262 268 273 275 275 273 272
223 216 210 209 208 207 204 200 198 196 194 194 196 198 198 197 197 195 192 190 190 189 189 189 187 187 187 185 186 190 191 188 189 193 195 196 195 193 195 199 201 199 196 190 191 195 196 195 197 199 199 198 196 197 194 188 186 189 194 197 199 201 204 207 210 213 215 216 221 227 232 239 241 240 244 246 244 244 249 255 260 266 273 274 273 274 272 271
212 206 198 197 198 196 191 186 183 185 187 190 194 197 198 197 193 190 188 187 185 184 186 184 179 181 183 179 180 187 190 188 189 190 191 192 193 194 196 200 202 199 194 190 192 195 195 194 196 197 198 199 199 198 197 193 190 192 197 200 202 204 206 209 213 216 217 219 225 231 235 240 243 244 245 247 248 250 253 258 265 272 275 272 272 274 271 270
207 199 188 187 189 184 180 177 179 187 192 192 194 196 195 190 185 182 182 184 183 182 183 180 176 179 179 174 177 184 189 189 188 188 188 187 189 194 197 200 200 195 190 191 196 197 195 194 196 196 199 201 202 202 201 199 197 198 201 205 207 210 211 213 216 219 222 225 230 234 237 240 243 244 246 248 249 252 255 260 266 272 274 271 272 274 272 271
201 191 182 181 180 176 174 176 185 193 193 192 192 190 186 179 176 178 181 183 183 181 180 179 178 177 174 170 174 182 187 189 187 187 188 187 186 190 196 200 199 192 187 192 198 199 196 195 195 197 200 201 203 206 205 203 201 202 205 208 210 214 216 217 220 222 225 228 231 234 238 242 244 246 248 250 251 255 258 262 267 271 271 268 269 271 272 274
193 185 180 178 175 173 174 181 189 191 190 189 186 181 177 172 170 177 184 185 185 179 176 177 178 175 172 170 172 179 185 187 186 185 185 186 185 188 196 200 197 192 190 193 197 199 197 196 195 196 200 201 202 206 208 206 203 203 206 210 212 216 218 219 221 223 224 227 231 235 239 243 245 247 249 251 253 257 260 264 269 269 267 266 265 266 269 270
187 182 177 175 172 172 178 185 188 186 186 184 176 172 170 166 169 181 186 187 187 178 172 174 176 173 172 173 174 177 182 184 186 185 183 184 186 188 192 195 192 189 192 195 197 198 195 194 194 193 196 201 202 204 206 206 205 204 206 209 212 217 219 219 221 223 224 227 233 238 240 244 246 247 249 251 254 258 261 265 268 266 263 263 262 262 265 267
181 177 175 173 173 176 181 186 184 182 181 174 168 168 166 164 174 181 180 186 186 177 172 173 173 172 172 175 176 176 178 182 183 183 182 183 186 190 192 191 186 184 190 196 197 196 192 191 192 192 193 199 204 205 204 203 204 204 205 208 212 216 219 220 222 225 228 231 236 240 242 244 245 247 250 253 256 260 262 264 265 262 259 259 260 263 266 268
177 175 173 173 175 179 182 183 182 179 174 168 166 167 165 164 174 176 178 186 180 171 168 168 169 170 169 174 178 176 176 178 178 179 181 183 185 190 193 191 186 183 187 193 196 194 191 189 191 192 194 198 203 205 206 206 205 206 207 210 214 218 222 224 225 229 232 235 238 242 244 244 245 248 250 254 256 259 260 261 261 260 258 256 258 261 263 266
176 174 173 174 177 180 181 181 179 175 170 167 167 169 168 167 168 171 179 173 163 160 161 162 166 168 167 170 175 174 172 172 174 176 179 181 183 187 192 192 189 188 187 190 193 193 191 191 192 195 196 200 204 206 209 212 214 215 217 218 220 223 227 229 230 232 234 236 239 242 243 244 246 248 250 252 253 254 255 256 258 259 257 255 255 256 259 263
174 172 173 176 178 180 181 179 176 172 169 168 170 172 173 169 163 166 169 156 147 150 160 164 166 168 168 168 168 166 165 165 169 174 176 180 184 187 189 188 190 194 194 192 193 192 192 193 194 197 199 201 205 207 210 215 218 222 224 225 226 228 229 230 231 232 232 233 235 239 241 242 243 245 246 247 249 251 252 254 255 256 254 254 254 255 258 263
171 170 173 179 180 180 180 177 174 172 170 171 173 174 175 169 163 167 162 148 141 148 160 165 166 168 167 163 161 161 163 164 168 172 175 180 184 188 188 186 188 196 199 197 194 192 192 194 195 198 200 202 204 206 208 213 216 219 220 220 223 226 228 228 227 229 230 230 231 234 236 237 238 240 241 243 247 249 250 252 253 253 252 253 255 258 261 264
164 168 177 183 183 180 178 176 174 173 172 174 176 177 177 170 164 167 158 148 147 152 158 164 166 167 163 160 163 165 165 168 168 169 174 178 181 184 185 185 189 196 199 197 195 192 192 195 196 198 200 201 203 203 205 209 214 217 217 216 218 221 224 225 223 224 227 229 230 232 235 236 239 240 242 244 246 247 248 251 253 252 252 253 255 259 263 265
160 172 182 184 184 180 177 176 174 174 175 178 179 178 178 172 165 168 159 152 156 157 158 164 166 164 163 163 167 169 168 170 169 169 172 176 178 180 181 185 190 195 199 198 195 193 193 196 199 199 199 200 201 201 203 207 212 216 217 216 218 221 222 221 220 221 224 226 228 230 233 236 238 241 243 244 245 246 247 248 249 248 248 251 254 258 261 263
164 177 181 181 182 180 176 174 174 176 178 181 181 177 178 174 169 171 164 157 161 162 161 166 166 164 167 167 168 170 171 172 171 171 172 173 177 179 180 185 189 193 197 198 196 195 196 198 201 201 202 203 203 204 206 208 212 216 218 220 223 225 226 222 219 221 223 226 229 231 233 235 238 240 242 243 244 246 247 246 245 245 247 251 253 255 256 257
168 179 179 178 180 179 177 174 175 178 181 183 181 178 178 177 174 176 168 162 165 166 164 168 169 168 170 170 170 173 174 173 173 175 176 175 177 181 182 184 188 191 195 197 197 197 197 200 203 203 205 206 207 209 211 213 216 218 221 223 225 226 227 226 223 222 224 228 233 236 238 241 243 243 242 242 243 244 245 246 247 248 248 249 250 250 251 254
169 177 179 178 179 178 177 177 177 180 183 185 184 181 181 179 177 178 175 168 169 170 169 172 174 174 174 173 174 177 177 176 175 177 181 181 180 183 185 185 187 190 194 196 198 198 198 201 204 205 206 208 210 212 215 217 219 222 224 224 225 225 227 229 228 227 227 230 234 238 240 241 241 242 242 244 247 248 249 250 251 251 249 247 247 248 251 256
168 174 178 179 180 180 180 181 181 184 185 186 188 187 185 182 179 180 180 176 175 176 176 177 178 179 179 179 180 183 183 182 180 180 183 185 186 187 188 188 188 190 193 196 198 199 199 202 206 207 207 209 212 215 218 219 220 223 225 224 224 225 228 231 232 231 231 232 234 237 239 239 239 244 248 252 256 258 259 258 257 255 252 249 249 249 251 254
162 174 180 180 182 184 185 185 184 186 186 186 190 192 188 185 182 181 182 182 181 182 182 180 180 182 183 183 185 188 189 187 186 185 185 186 188 190 190 192 193 193 195 198 199 201 201 203 206 208 208 208 210 214 218 221 221 222 224 224 225 225 227 230 232 233 234 234 235 235 238 240 242 247 252 257 262 265 266 265 260 256 254 252 252 251 250 251
157 169 179 182 185 187 187 187 186 186 185 186 191 193 189 187 186 182 181 184 186 187 186 183 183 185 185 185 186 189 191 192 191 191 189 188 188 190 191 193 194 195 198 202 204 205 205 206 209 211 211 211 212 214 217 220 222 222 222 226 229 230 230 231 232 233 234 236 237 238 240 243 247 250 253 257 262 265 267 265 257 252 251 250 251 251 251 251
156 163 176 186 188 187 186 187 187 185 185 187 191 193 190 188 189 187 185 186 189 190 189 190 190 190 191 191 190 191 194 195 196 195 194 194 194 194 196 197 199 199 201 203 206 208 209 211 213 215 215 216 218 219 220 221 223 222 221 223 228 229 229 231 234 236 236 237 239 242 244 247 250 253 254 255 258 262 263 260 253 250 248 244 246 252 255 255
156 167 181 186 186 186 186 187 187 186 186 188 190 194 194 191 191 192 190 190 193 194 193 194 198 199 200 200 199 198 199 200 202 202 202 203 204 202 202 204 205 206 208 209 210 210 211 213 216 218 219 221 223 224 225 227 228 228 226 225 227 228 228 231 236 238 239 239 240 243 246 249 251 252 252 252 255 258 259 256 251 249 248 245 247 252 257 259
Height
5705 5705 5706 5706 5706 5707 5708 5709 5711 5712 5713 5714 5716 5717 5719 5720 5722 5724 5726 5728 5729 5731 5733 5735 5736 5737 5739 5741 5743 5744 5745 5748 5750 5754 5758 5756 5757 5761 5762 5764 5767 5769 5771 5772 5773 5775 5777 5779 5782 5785 5788 5790 5792 5795 5797 5800 5802 5805 5807 5809 5811 5812 5813 5814 5816 5818 5819 5820 5821 5822 5823 5825 5826 5828 5829 5830 5831 5832 5833 5833 5834 5834 5834 5834 5833 5833 5832 5832
5700 5700 5700 5700 5700 5701 5701 5702 5704 5705 5706 5708 5709 5711 5712 5714 5716 5718 5720 5722 5724 5726 5728 5730 5731 5733 5735 5737 5739 5740 5742 5743 5746 5751 5752 5751 5754 5757 5759 5762 5765 5766 5768 5769 5770 5772 5774 5776 5779 5782 5784 5787 5789 5792 5794 5797 5800 5802 5804 5806 5808 5809 5810 5812 5814 5815 5816 5818 5819 5820 5822 5824 5825 5826 5827 5828 5829 5830 5830 5831 5831 5831 5831 5831 5831 5830 5829 5829
5693 5694 5694 5694 5694 5694 5695 5696 5697 5698 5700 5701 5702 5704 5706 5708 5709 5711 5713 5716 5718 5720 5723 5724 5726 5728 5730 5732 5734 5736 5738 5739 5742 5747 5747 5748 5751 5753 5756 5759 5761 5763 5764 5766 5768 5769 5772 5774 5777 5780 5782 5785 5787 5789 5792 5795 5798 5799 5801 5803 5805 5806 5807 5809 5811 5812 5814 5815 5817 5818 5820 5822 5823 5824 5826 5826 5827 5828 5828 5828 5828 5828 5828 5829 5828 5828 5827 5828
5686 5687 5687 5687 5688 5688 5688 5689 5690 5691 5693 5694 5696 5697 5699 5701 5703 5705 5707 5710 5712 5715 5717 5719 5721 5723 5725 5728 5730 5731 5734 5736 5739 5743 5743 5744 5746 5749 5753 5755 5758 5759 5761 5764 5765 5767 5770 5772 5774 5777 5780 5782 5785 5787 5790 5793 5795 5797 5799 5800 5801 5803 5804 5806 5808 5810 5811 5813 5815 5816 5818 5819 5820 5822 5823 5824 5825 5826 5825 5826 5825 5825 5826 5826 5826 5826 5826 5826
5679 5679 5680 5680 5681 5681 5682 5682 5683 5684 5686 5687 5688 5690 5692 5694 5696 5698 5701 5703 5706 5708 5711 5713 5715 5718 5720 5723 5725 5727 5729 5732 5735 5738 5739 5740 5742 5745 5749 5752 5754 5755 5758 5761 5763 5765 5767 5769 5772 5775 5778 5780 5783 5786 5788 5791 5792 5794 5795 5796 5798 5800 5802 5804 5806 5807 5809 5811 5812 5814 5815 5817 5818 5819 5821 5822 5823 5823 5823 5823 5823 5823 5823 5824 5824 5824 5824 5824
5672 5672 5672 5672 5673 5674 5674 5675 5676 5677 5678 5680 5681 5683 5685 5687 5689 5692 5694 5697 5700 5702 5704 5707 5709 5712 5715 5717 5720 5722 5725 5728 5731 5733 5735 5736 5738 5742 5746 5748 5750 5752 5755 5758 5760 5762 5764 5767 5770 5772 5775 5778 5781 5783 5785 5787 5790 5791 5791 5793 5795 5798 5800 5801 5803 5805 5807 5809 5810 5812 5813 5814 5815 5817 5818 5820 5820 5820 5821 5821 5821 5821 5821 5821 5821 5822 5822 5821
5665 5664 5664 5664 5665 5666 5666 5667 5668 5670 5671 5672 5674 5675 5677 5680 5682 5685 5688 5690 5693 5696 5698 5700 5703 5706 5709 5712 5715 5718 5721 5725 5726 5729 5731 5732 5734 5738 5742 5744 5746 5749 5752 5755 5758 5759 5762 5765 5767 5770 5772 5774 5777 5780 5782 5784 5786 5787 5788 5790 5793 5795 5797 5799 5800 5802 5805 5806 5808 5810 5811 5812 5813 5814 5816 5817 5817 5817 5818 5818 5818 5819 5819 5819 5819 5820 5820 5819
5657 5657 5656 5656 5657 5657 5658 5660 5661 5662 5663 5665 5666 5668 5670 5672 5675 5678 5681 5684 5687 5689 5692 5694 5697 5700 5703 5707 5710 5713 5718 5721 5720 5724 5727 5728 5730 5734 5738 5740 5743 5746 5748 5751 5754 5756 5759 5761 5764 5766 5769 5771 5774 5776 5778 5780 5783 5784 5785 5788 5790 5792 5794 5796 5798 5801 5803 5804 5806 5808 5809 5810 5810 5812 5813 5813 5814 5814 5815 5815 5816 5816 5816 5817 5818 5818 5817 5816
5649 5649 5648 5649 5649 5649 5650 5651 5653 5654 5656 5657 5659 5661 5663 5665 5668 5671 5674 5677 5680 5683 5685 5688 5691 5694 5698 5701 5705 5709 5714 5715 5715 5719 5723 5725 5727 5730 5734 5737 5740 5742 5745 5747 5750 5753 5756 5758 5760 5763 5765 5767 5770 5772 5774 5777 5780 5781 5783 5785 5787 5790 5792 5795 5797 5799 5801 5802 5804 5805 5806 5807 5808 5810 5810 5810 5810 5811 5812 5813 5813 5814 5814 5815 5816 5815 5815 5815
5641 5640 5640 5640 5641 5641 5642 5643 5645 5646 5648 5649 5651 5653 5655 5658 5661 5664 5667 5670 5673 5676 5678 5682 5685 5688 5692 5695 5700 5706 5708 5708 5711 5715 5719 5721 5723 5727 5730 5733 5736 5739 5741 5744 5747 5750 5752 5754 5757 5760 5762 5764 5767 5769 5770 5774 5776 5777 5779 5782 5784 5787 5790 5793 5795 5797 5798 5800 5802 5803 5804 5805 5806 5807 5807 5806 5807 5809 5810 5811 5811 5811 5812 5813 5813 5813 5813 5813
5633 5632 5632 5632 5632 5633 5634 5635 5636 5638 5640 5641 5643 5645 5647 5650 5653 5657 5660 5663 5666 5669 5672 5675 5678 5682 5686 5690 5696 5701 5701 5703 5707 5710 5714 5717 5719 5722 5725 5728 5732 5734 5737 5741 5743 5745 5747 5750 5753 5757 5759 5761 5764 5765 5768 5771 5773 5774 5777 5779 5782 5785 5788 5790 5793 5795 5796 5798 5799 5800 5802 5804 5805 5804 5804 5804 5805 5807 5808 5808 5809 5809 5810 5811 5811 5811 5811 5810
5624 5624 5624 5624 5624 5625 5625 5627 5628 5629 5631 5633 5635 5637 5640 5643 5646 5649 5652 5656 5660 5662 5666 5669 5672 5676 5680 5686 5692 5694 5695 5698 5701 5705 5709 5712 5714 5718 5721 5725 5728 5731 5734 5738 5739 5741 5744 5747 5751 5754 5756 5759 5761 5762 5765 5768 5770 5772 5774 5777 5780 5783 5785 5788 5790 5792 5793 5795 5797 5798 5801 5802 5802 5801 5801 5802 5804 5805 5806 5806 5806 5807 5808 5808 5809 5809 5808 5808
5616 5615 5615 5615 5616 5616 5617 5618 5619 5621 5623 5625 5627 5629 5632 5635 5638 5642 5645 5649 5653 5656 5659 5662 5666 5670 5675 5682 5686 5685 5689 5693 5696 5700 5704 5707 5711 5715 5718 5721 5725 5728 5731 5734 5736 5738 5741 5744 5747 5750 5753 5756 5757 5759 5762 5765 5767 5770 5772 5775 5778 5780 5783 5786 5788 5789 5791 5793 5795 5797 5799 5799 5798 5798 5799 5801 5802 5803 5804 5804 5805 5805 5806 5807 5807 5806 5806 5806
5607 5607 5607 5607 5607 5608 5609 5610 5611 5613 5615 5617 5619 5622 5624 5627 5631 5634 5638 5642 5646 5649 5652 5656 5661 5665 5671 5678 5678 5679 5685 5688 5692 5696 5699 5703 5708 5711 5714 5718 5721 5724 5727 5729 5732 5736 5738 5741 5744 5746 5750 5752 5754 5757 5760 5763 5765 5767 5769 5772 5775 5778 5781 5783 5785 5787 5788 5790 5792 5795 5797 5796 5795 5796 5798 5799 5800 5801 5802 5802 5803 5803 5804 5804 5804 5804 5804 5804
5599 5599 5599 5599 5599 5600 5600 5602 5603 5605 5607 5610 5612 5615 5617 5620 5624 5628 5632 5635 5639 5643 5646 5651 5655 5659 5666 5671 5672 5675 5680 5684 5688 5691 5695 5700 5703 5707 5710 5713 5716 5720 5722 5725 5728 5732 5735 5738 5741 5744 5747 5749 5752 5755 5758 5761 5763 5765 5767 5769 5773 5776 5778 5780 5782 5783 5785 5788 5790 5793 5794 5793 5792 5794 5796 5797 5798 5799 5800 5800 5801 5801 5801 5802 5802 5802 5802 5803
5591 5591 5591 5591 5591 5592 5593 5594 5596 5598 5600 5603 5605 5608 5610 5613 5618 5621 5625 5629 5633 5637 5641 5646 5650 5654 5660 5664 5666 5670 5675 5680 5683 5686 5691 5695 5698 5702 5705 5708 5712 5715 5718 5721 5725 5728 5732 5735 5738 5741 5744 5747 5750 5752 5755 5758 5761 5763 5765 5767 5770 5773 5775 5777 5778 5780 5782 5784 5787 5790 5791 5790 5791 5793 5795 5796 5797 5797 5798 5798 5798 5798 5799 5800 5800 5800 5800 5801
5584 5583 5583 5583 5584 5584 5586 5587 5589 5592 5594 5597 5599 5601 5604 5608 5612 5615 5619 5623 5628 5632 5636 5640 5645 5650 5655 5659 5662 5666 5669 5674 5678 5681 5686 5689 5693 5697 5700 5704 5707 5711 5714 5717 5721 5725 5728 5732 5735 5738 5741 5744 5747 5750 5753 5756 5758 5760 5763 5766 5768 5771 5772 5773 5775 5777 5779 5782 5785 5787 5789 5789 5790 5792 5793 5793 5794 5794 5794 5795 5795 5796 5797 5798 5798 5798 5799 5799
5576 5576 5576 5576 5577 5578 5579 5581 5584 5586 5589 5591 5594 5596 5599 5603 5606 5609 5614 5618 5622 5627 5631 5636 5640 5645 5651 5655 5657 5660 5664 5669 5673 5677 5681 5684 5688 5692 5695 5699 5703 5707 5710 5714 5718 5721 5725 5728 5732 5735 5739 5742 5744 5747 5750 5754 5756 5758 5761 5764 5766 5768 5769 5770 5772 5774 5776 5780 5783 5786 5787 5787 5788 5789 5790 5790 5790 5790 5791 5792 5793 5794 5796 5796 5796 5797 5797 5797
5570 5570 5570 5570 5572 5573 5574 5577 5579 5581 5584 5587 5589 5591 5595 5598 5601 5605 5609 5613 5618 5623 5628 5633 5637 5642 5647 5650 5652 5656 5661 5665 5668 5673 5676 5680 5683 5687 5691 5694 5698 5703 5706 5710 5714 5717 5721 5725 5729 5733 5736 5740 5742 5745 5748 5751 5754 5756 5759 5761 5763 5765 5766 5767 5770 5771 5775 5779 5782 5785 5785 5784 5785 5786 5786 5786 5787 5788 5789 5790 5791 5792 5793 5794 5794 5794 5795 5795
5565 5565 5565 5566 5567 5569 5571 5573 5575 5578 5581 5583 5585 5588 5591 5594 5597 5600 5605 5610 5616 5620 5624 5629 5633 5638 5641 5644 5647 5652 5657 5661 5664 5668 5672 5676 5680 5683 5687 5691 5695 5699 5703 5707 5710 5714 5718 5722 5727 5731 5734 5737 5739 5742 5745 5748 5751 5754 5756 5758 5760 5762 5763 5765 5768 5770 5774 5779 5781 5781 5780 5780 5783 5784 5783 5783 5785 5787 5788 5789 5790 5791 5791 5791 5791 5792 5793 5793
5561 5561 5562 5563 5564 5566 5568 5571 5573 5576 5578 5580 5583 5585 5587 5591 5594 5598 5604 5609 5614 5617 5621 5625 5629 5634 5637 5640 5643 5648 5653 5656 5660 5664 5668 5672 5676 5679 5683 5688 5692 5696 5699 5703 5707 5711 5715 5720 5725 5728 5730 5733 5736 5739 5742 5746 5749 5752 5754 5756 5758 5760 5761 5764 5765 5768 5773 5777 5778 5777 5777 5779 5781 5781 5781 5782 5784 5786 5787 5788 5789 5790 5790 5790 5790 5791 5791 5791
5558 5559 5559 5561 5562 5564 5567 5569 5572 5574 5576 5578 5580 5581 5585 5590 5594 5598 5603 5608 5611 5615 5619 5623 5627 5631 5634 5638 5641 5645 5650 5653 5657 5661 5665 5668 5672 5676 5680 5685 5689 5693 5696 5700 5704 5708 5712 5717 5721 5723 5726 5729 5732 5736 5740 5743 5746 5749 5751 5753 5756 5757 5759 5761 5763 5767 5772 5774 5774 5774 5775 5777 5778 5779 5780 5781 5783 5784 5785 5786 5787 5788 5788 5789 5789 5789 5789 5789
5557 5558 5559 5560 5562 5563 5565 5568 5570 5573 5574 5575 5577 5580 5585 5589 5593 5597 5601 5605 5608 5612 5616 5621 5625 5628 5631 5635 5639 5643 5648 5651 5654 5658 5662 5666 5670 5673 5678 5682 5686 5689 5693 5698 5702 5706 5710 5713 5716 5719 5723 5726 5730 5733 5737 5740 5743 5745 5748 5751 5754 5755 5757 5759 5761 5766 5770 5771 5771 5772 5774 5775 5776 5778 5779 5780 5782 5782 5783 5783 5784 5786 5786 5787 5787 5787 5788 5788
5557 5557 5558 5559 5561 5562 5564 5566 5569 5571 5572 5574 5577 5581 5585 5589 5592 5595 5598 5602 5605 5609 5614 5617 5621 5625 5628 5631 5635 5640 5644 5647 5650 5655 5659 5664 5667 5671 5675 5680 5683 5687 5691 5696 5700 5703 5707 5710 5713 5716 5720 5723 5727 5730 5733 5737 5740 5743 5745 5749 5752 5754 5755 5756 5759 5764 5767 5769 5769 5771 5772 5772 5774 5776 5777 5779 5779 5780 5780 5781 5782 5783 5784 5785 5785 5785 5786 5786
5556 5557 5558 5559 5560 5561 5563 5565 5567 5569 5571 5574 5577 5580 5584 5587 5590 5593 5596 5599 5603 5607 5611 5614 5619 5622 5624 5627 5632 5637 5640 5643 5648 5652 5656 5662 5665 5669 5673 5677 5681 5684 5688 5692 5696 5699 5702 5706 5711 5714 5717 5720 5723 5726 5730 5734 5737 5740 5743 5746 5749 5751 5753 5755 5757 5761 5765 5766 5767 5768 5769 5770 5773 5775 5776 5777 5777 5778 5778 5779 5780 5780 5781 5782 5783 5783 5784 5784
5555 5556 5557 5558 5559 5560 5562 5564 5566 5568 5570 5573 5576 5579 5582 5585 5588 5591 5594 5597 5601 5605 5609 5613 5617 5619 5621 5627 5632 5635 5638 5642 5645 5648 5653 5659 5662 5667 5671 5675 5678 5682 5685 5689 5693 5696 5699 5704 5709 5712 5715 5717 5719 5723 5727 5731 5734 5737 5741 5744 5746 5749 5751 5753 5756 5758 5761 5763 5764 5766 5767 5769 5772 5773 5774 5775 5775 5776 5776 5777 5777 5778 5779 5779 5780 5781 5782 5782
5553 5554 5555 5556 5557 5559 5561 5563 5565 5567 5569 5571 5574 5577 5580 5583 5586 5589 5592 5596 5600 5604 5608 5612 5615 5617 5622 5628 5631 5633 5638 5641 5642 5645 5650 5655 5658 5662 5667 5671 5676 5679 5682 5686 5690 5694 5698 5702 5706 5709 5711 5714 5717 5721 5725 5728 5731 5735 5739 5742 5744 5747 5749 5751 5753 5756 5758 5760 5762 5764 5766 5768 5770 5772 5773 5773 5773 5774 5775 5775 5775 5776 5777 5777 5778 5779 5779 5779
5551 5552 5553 5554 5556 5557 5559 5561 5563 5566 5568 5570 5573 5575 5578 5581 5584 5587 5591 5595 5600 5603 5606 5610 5613 5616 5621 5625 5628 5633 5637 5639 5641 5645 5649 5652 5656 5660 5664 5668 5673 5678 5681 5684 5688 5693 5697 5700 5703 5706 5709 5712 5716 5720 5723 5727 5730 5734 5738 5740 5742 5745 5747 5749 5751 5753 5756 5758 5760 5762 5764 5766 5768 5771 5772 5771 5771 5772 5773 5773 5774 5775 5775 5776 5776 5777 5777 5777
5548 5549 5550 5552 5554 5556 5558 5560 5562 5565 5567 5569 5571 5574 5577 5580 5584 5587 5591 5595 5599 5601 5605 5608 5611 5615 5620 5623 5627 5631 5634 5636 5641 5645 5647 5650 5653 5658 5663 5667 5671 5675 5679 5683 5688 5691 5694 5697 5700 5704 5707 5711 5715 5719 5722 5726 5730 5733 5735 5737 5739 5742 5744 5746 5748 5751 5753 5755 5758 5760 5762 5765 5766 5768 5770 5770 5769 5769 5770 5772 5773 5773 5774 5774 5774 5775 5775 5775
5546 5547 5548 5550 5552 5554 5556 5558 5561 5564 5566 5568 5571 5574 5577 5580 5583 5586 5590 5594 5597 5599 5604 5607 5611 5615 5619 5622 5626 5628 5631 5634 5639 5642 5645 5649 5652 5656 5661 5665 5668 5671 5675 5681 5686 5688 5690 5693 5697 5701 5705 5709 5713 5716 5719 5724 5728 5731 5732 5734 5737 5740 5742 5744 5746 5748 5750 5753 5755 5757 5760 5763 5764 5764 5766 5767 5768 5768 5769 5770 5771 5772 5772 5772 5772 5772 5772 5773
5543 5544 5546 5548 5549 5552 5554 5557 5560 5562 5565 5568 5571 5573 5577 5580 5582 5585 5589 5593 5596 5599 5602 5606 5609 5613 5617 5622 5625 5626 5629 5632 5636 5639 5642 5646 5650 5654 5657 5661 5664 5667 5672 5678 5683 5684 5686 5690 5695 5699 5702 5705 5709 5712 5715 5720 5724 5727 5729 5731 5734 5737 5739 5741 5743 5745 5747 5750 5753 5755 5758 5760 5760 5761 5762 5764 5766 5767 5767 5768 5769 5770 5770 5770 5770 5770 5770 5770
5542 5543 5545 5546 5548 5550 5553 5556 5558 5561 5564 5567 5570 5573 5576 5578 5581 5585 5589 5593 5596 5598 5601 5604 5608 5612 5616 5620 5624 5626 5628 5631 5634 5637 5641 5645 5649 5652 5656 5659 5662 5665 5670 5676 5680 5681 5685 5689 5693 5697 5700 5703 5706 5709 5712 5716 5719 5722 5725 5727 5730 5733 5735 5738 5740 5742 5745 5748 5750 5753 5756 5756 5756 5758 5759 5760 5763 5765 5766 5766 5767 5768 5768 5768 5768 5768 5768 5768
5541 5542 5544 5546 5548 5550 5552 5555 5558 5561 5564 5566 5569 5572 5574 5577 5581 5586 5589 5592 5595 5597 5600 5603 5607 5611 5614 5618 5621 5625 5628 5630 5633 5636 5640 5645 5649 5652 5655 5658 5662 5667 5672 5676 5677 5680 5684 5687 5691 5695 5698 5701 5704 5707 5710 5713 5716 5719 5721 5724 5727 5730 5732 5734 5737 5739 5743 5746 5749 5751 5753 5752 5753 5754 5756 5758 5761 5762 5763 5764 5765 5765 5766 5766 5766 5766 5765 5766
5540 5542 5544 5545 5548 5550 5553 5555 5558 5561 5563 5566 5568 5571 5573 5577 5582 5586 5588 5591 5594 5596 5598 5602 5605 5609 5612 5616 5620 5623 5626 5629 5632 5636 5639 5643 5647 5650 5654 5657 5662 5667 5672 5675 5676 5679 5682 5686 5690 5694 5697 5700 5703 5706 5709 5713 5716 5719 5722 5725 5727 5729 5731 5733 5735 5738 5742 5745 5747 5749 5749 5748 5749 5751 5753 5756 5758 5759 5761 5762 5762 5763 5763 5763 5763 5763 5763 5763
5540 5541 5543 5545 5548 5550 5553 5556 5558 5560 5562 5565 5568 5571 5575 5578 5582 5585 5587 5590 5592 5594 5596 5600 5603 5606 5610 5614 5618 5622 5625 5628 5631 5635 5639 5642 5646 5649 5653 5657 5662 5666 5670 5673 5675 5678 5682 5686 5690 5693 5696 5700 5703 5706 5708 5712 5715 5719 5722 5724 5726 5728 5730 5733 5735 5738 5741 5743 5744 5745 5745 5745 5747 5749 5752 5754 5755 5757 5759 5759 5760 5760 5761 5761 5761 5761 5761 5761
5539 5541 5543 5545 5548 5551 5553 5556 5557 5560 5563 5566 5569 5572 5576 5579 5582 5585 5588 5589 5592 5593 5594 5598 5602 5605 5609 5612 5615 5620 5624 5628 5630 5634 5638 5642 5646 5649 5653 5657 5662 5667 5669 5671 5674 5678 5681 5686 5689 5692 5696 5699 5701 5704 5707 5711 5714 5717 5720 5722 5725 5727 5729 5731 5733 5735 5738 5739 5740 5741 5742 5743 5745 5748 5749 5751 5752 5754 5756 5757 5757 5758 5758 5758 5758 5759 5759 5759
5539 5541 5543 5546 5548 5551 5553 5555 5557 5561 5564 5567 5570 5573 5576 5579 5581 5584 5587 5589 5591 5592 5594 5597 5601 5604 5608 5611 5613 5618 5622 5626 5630 5633 5637 5641 5645 5648 5652 5657 5662 5666 5668 5671 5674 5677 5681 5685 5688 5692 5695 5697 5700 5702 5706 5709 5713 5716 5718 5721 5723 5725 5726 5729 5730 5732 5734 5735 5736 5738 5739 5741 5743 5745 5747 5748 5750 5751 5753 5754 5755 5755 5756 5756 5756 5756 5757 5757
5539 5541 5543 5546 5548 5551 5553 5555 5559 5562 5565 5568 5570 5573 5576 5579 5581 5584 5587 5589 5591 5593 5595 5597 5601 5604 5607 5610 5613 5617 5621 5625 5629 5633 5637 5641 5644 5648 5651 5656 5660 5664 5667 5670 5673 5677 5680 5684 5687 5690 5693 5696 5699 5701 5704 5707 5711 5714 5716 5719 5721 5722 5724 5726 5727 5728 5730 5732 5733 5735 5737 5739 5741 5742 5744 5746 5748 5749 5750 5751 5752 5753 5753 5753 5753 5754 5754 5754
5539 5541 5543 5546 5549 5551 5553 5557 5560 5564 5566 5568 5571 5573 5577 5579 5581 5584 5587 5589 5591 5593 5595 5598 5601 5604 5608 5611 5614 5617 5621 5625 5629 5633 5636 5640 5644 5647 5651 5655 5659 5662 5665 5669 5672 5676 5679 5682 5685 5688 5692 5694 5697 5700 5703 5705 5708 5710 5713 5715 5718 5720 5722 5724 5725 5727 5728 5730 5731 5732 5734 5737 5739 5740 5742 5744 5746 5747 5748 5749 5750 5751 5751 5751 5751 5752 5752 5752
5539 5541 5543 5546 5549 5551 5554 5558 5562 5564 5567 5569 5571 5574 5577 5579 5581 5585 5587 5588 5590 5593 5596 5599 5602 5605 5608 5611 5614 5618 5621 5626 5630 5633 5636 5639 5643 5646 5649 5654 5657 5660 5663 5666 5670 5674 5678 5681 5684 5687 5690 5693 5696 5699 5702 5704 5707 5709 5710 5713 5715 5717 5719 5721 5723 5725 5726 5728 5729 5729 5732 5735 5737 5739 5741 5742 5744 5745 5746 5748 5748 5748 5749 5749 5749 5750 5750 5750
5539 5541 5544 5547 5549 5552 5555 5559 5562 5565 5567 5570 5572 5575 5577 5579 5582 5585 5586 5588 5590 5594 5597 5600 5603 5606 5608 5611 5614 5618 5622 5625 5629 5632 5635 5639 5642 5645 5648 5652 5656 5659 5661 5664 5668 5672 5676 5679 5682 5686 5688 5691 5694 5697 5701 5703 5705 5707 5709 5712 5714 5715 5717 5718 5720 5721 5723 5724 5726 5727 5730 5733 5735 5736 5739 5740 5742 5743 5744 5745 5746 5746 5746 5746 5747 5747 5748 5748
5539 5542 5544 5547 5550 5553 5556 5559 5562 5565 5567 5570 5572 5575 5577 5579 5582 5585 5587 5588 5591 5595 5598 5601 5604 5607 5610 5613 5616 5619 5621 5624 5627 5631 5635 5638 5641 5644 5648 5651 5655 5658 5660 5663 5667 5671 5674 5677 5680 5683 5686 5689 5692 5696 5699 5701 5702 5704 5707 5709 5711 5712 5714 5715 5717 5719 5720 5722 5724 5726 5728 5730 5732 5734 5736 5738 5739 5741 5742 5743 5743 5744 5744 5744 5745 5745 5746 5746
5540 5543 5545 5548 5551 5554 5557 5559 5562 5565 5568 5570 5573 5575 5577 5579 5583 5587 5588 5589 5592 5596 5599 5602 5605 5608 5612 5615 5617 5619 5622 5624 5627 5631 5635 5637 5641 5644 5648 5651 5654 5656 5659 5662 5666 5669 5672 5675 5677 5681 5684 5687 5690 5693 5696 5698 5699 5701 5704 5706 5708 5709 5711 5713 5715 5717 5718 5720 5722 5725 5726 5728 5731 5732 5734 5736 5737 5738 5739 5740 5741 5741 5741 5742 5743 5743 5743 5743
5541 5544 5546 5548 5552 5554 5557 5559 5562 5565 5568 5570 5573 5575 5577 5580 5584 5587 5589 5591 5594 5597 5600 5603 5606 5609 5613 5615 5618 5620 5623 5625 5628 5631 5634 5637 5640 5643 5647 5650 5653 5656 5659 5662 5665 5668 5670 5673 5675 5678 5681 5684 5687 5690 5692 5694 5697 5699 5702 5704 5706 5707 5709 5711 5713 5715 5716 5718 5720 5722 5724 5727 5729 5730 5732 5733 5735 5736 5737 5738 5738 5738 5739 5740 5740 5741 5741 5741
5540 5543 5546 5548 5552 5555 5557 5560 5563 5565 5568 5570 5573 5576 5578 5581 5585 5588 5590 5592 5595 5598 5601 5604 5607 5610 5614 5616 5619 5622 5625 5627 5630 5632 5634 5637 5640 5643 5646 5649 5652 5655 5658 5661 5664 5667 5670 5672 5674 5676 5679 5682 5684 5687 5689 5692 5694 5697 5700 5702 5704 5706 5707 5709 5711 5713 5714 5716 5718 5720 5722 5725 5726 5728 5730 5731 5732 5733 5734 5735 5736 5736 5737 5737 5738 5738 5738 5738
5539 5543 5546 5549 5552 5554 5557 5560 5563 5566 5569 5571 5574 5576 5579 5582 5585 5589 5591 5593 5596 5599 5602 5605 5608 5611 5614 5617 5619 5622 5625 5628 5631 5633 5635 5637 5640 5643 5646 5649 5652 5655 5658 5661 5663 5666 5669 5671 5673 5676 5679 5681 5684 5686 5689 5691 5694 5696 5698 5700 5702 5704 5705 5707 5709 5711 5713 5715 5716 5718 5720 5723 5724 5726 5727 5729 5730 5731 5731 5732 5733 5733 5734 5735 5735 5735 5736 5736
5540 5543 5547 5550 5552 5555 5558 5560 5563 5566 5569 5572 5575 5577 5580 5583 5586 5590 5592 5594 5597 5600 5603 5606 5609 5611 5614 5617 5620 5622 5625 5628 5631 5634 5636 5638 5640 5643 5646 5648 5651 5654 5657 5660 5663 5665 5668 5670 5672 5675 5678 5681 5683 5685 5688 5690 5693 5695 5696 5698 5700 5702 5704 5705 5707 5709 5711 5713 5714 5716 5718 5720 5722 5723 5725 5726 5727 5728 5729 5729 5730 5730 5731 5732 5732 5733 5733 5733
5540 5543 5546 5550 5552 5555 5557 5560 5563 5566 5569 5572 5575 5577 5580 5583 5586 5590 5594 5595 5598 5601 5604 5606 5609 5612 5615 5617 5620 5623 5626 5628 5631 5633 5636 5638 5640 5643 5645 5648 5651 5654 5656 5659 5662 5664 5667 5669 5671 5674 5677 5679 5681 5684 5686 5688 5690 5692 5694 5696 5698 5700 5702 5704 5705 5707 5709 5711 5713 5715 5716 5718 5720 5721 5722 5723 5724 5725 5726 5727 5727 5727 5728 5729 5729 5730 5730 5730
5540 5543 5546 5549 5552 5554 5557 5560 5563 5566 5569 5573 5576 5578 5581 5584 5588 5591 5595 5597 5599 5602 5604 5607 5610 5612 5615 5617 5620 5623 5626 5629 5631 5634 5636 5639 5641 5643 5646 5648 5651 5653 5656 5659 5661 5664 5666 5668 5670 5673 5675 5678 5680 5682 5684 5686 5688 5690 5692 5695 5697 5699 5700 5702 5703 5705 5707 5709 5711 5712 5714 5715 5717 5719 5720 5721 5722 5723 5723 5724 5724 5725 5725 5726 5727 5727 5727 5727
5539 5542 5545 5548 5551 5553 5557 5560 5563 5566 5570 5574 5576 5579 5583 5586 5589 5592 5596 5598 5600 5603 5605 5608 5610 5613 5615 5617 5620 5623 5626 5629 5632 5634 5637 5639 5642 5644 5646 5649 5651 5653 5656 5658 5661 5663 5666 5668 5669 5671 5674 5676 5678 5680 5682 5684 5686 5688 5691 5693 5695 5696 5698 5700 5701 5703 5705 5706 5708 5710 5711 5713 5715 5716 5718 5719 5719 5720 5721 5722 5722 5722 5723 5724 5724 5724 5724 5725
5540 5543 5545 5547 5551 5554 5557 5561 5564 5567 5571 5574 5577 5580 5583 5586 5590 5593 5596 5598 5601 5603 5605 5608 5610 5613 5615 5617 5620 5622 5625 5628 5631 5634 5637 5639 5641 5643 5646 5648 5650 5653 5655 5657 5660 5662 5665 5667 5668 5670 5673 5674 5676 5678 5680 5682 5684 5686 5688 5690 5692 5694 5696 5698 5699 5701 5702 5704 5706 5707 5709 5711 5712 5714 5715 5716 5717 5718 5719 5720 5720 5720 5721 5721 5722 5722 5722 5722
5540 5543 5545 5548 5551 5554 5557 5560 5564 5568 5571 5574 5577 5580 5583 5586 5589 5593 5596 5598 5601 5603 5605 5608 5610 5613 5615 5617 5620 5623 5625 5628 5631 5633 5636 5638 5641 5643 5645 5647 5649 5651 5654 5656 5658 5660 5663 5665 5667 5669 5671 5673 5675 5677 5679 5681 5682 5684 5686 5688 5690 5692 5693 5695 5697 5699 5700 5702 5704 5705 5707 5708 5709 5711 5712 5713 5714 5715 5716 5717 5718 5718 5719 5719 5720 5720 5720 5720